WAT4275 UDYZ-OSDI

Flight info

Callsign WAT4275
Flight time 1h 35m
Altitude 34000
Route INDUR DCT BEYAZ UT333 LESRI UL573 KML L572 TAN
Aircraft B738/M-SDE2E3FGHIRWXY/LB1

Departure

Time 2026-04-25 10:17
Airport Zvartnots International Airport (UDYZ)

Arrival

Time 2026-04-25 11:52
Airport Damascus International Airport (OSDI)
Time Latitude Longitude Altitude Speed Heading
2026-04-25 10:14 40.15090 44.41600 2844 ft 0 kts 358°
2026-04-25 10:14 40.15065 44.41601 2842 ft 7 kts 358°
2026-04-25 10:15 40.15018 44.41600 2841 ft 7 kts 19°
2026-04-25 10:15 40.14993 44.41555 2840 ft 1 kts 90°
2026-04-25 10:15 40.14993 44.41594 2843 ft 10 kts 89°
2026-04-25 10:15 40.14970 44.41700 2842 ft 15 kts 128°
2026-04-25 10:16 40.14872 44.41791 2845 ft 18 kts 147°
2026-04-25 10:16 40.14775 44.41815 2844 ft 12 kts 209°
2026-04-25 10:16 40.14743 44.41696 2846 ft 25 kts 269°
2026-04-25 10:16 40.14739 44.41043 2838 ft 117 kts 269°
2026-04-25 10:17 40.14729 44.39601 2885 ft 196 kts 270°
2026-04-25 10:17 40.14760 44.37709 3948 ft 213 kts 272°
2026-04-25 10:17 40.14823 44.35737 5381 ft 224 kts 272°
2026-04-25 10:17 40.14744 44.33537 5995 ft 259 kts 259°
2026-04-25 10:18 40.14426 44.31249 7602 ft 256 kts 261°
2026-04-25 10:18 40.14267 44.28944 9221 ft 254 kts 266°
2026-04-25 10:18 40.14141 44.26631 10662 ft 260 kts 259°
2026-04-25 10:18 40.13298 44.24448 11573 ft 285 kts 230°
2026-04-25 10:19 40.11607 44.22907 12622 ft 308 kts 212°
2026-04-25 10:19 40.09662 44.21570 13689 ft 323 kts 213°
2026-04-25 10:19 40.07642 44.20148 14632 ft 336 kts 213°
2026-04-25 10:19 40.05569 44.18641 15592 ft 346 kts 214°
2026-04-25 10:20 40.03453 44.17061 16707 ft 352 kts 215°
2026-04-25 10:20 40.01316 44.15451 17829 ft 358 kts 216°
2026-04-25 10:20 39.99144 44.13806 18851 ft 364 kts 216°
2026-04-25 10:20 39.96972 44.12156 19776 ft 368 kts 216°
2026-04-25 10:21 39.94817 44.10332 20716 ft 369 kts 222°
2026-04-25 10:21 39.92752 44.08317 21671 ft 375 kts 221°
2026-04-25 10:21 39.90599 44.06359 22617 ft 379 kts 221°
2026-04-25 10:21 39.88460 44.04326 23527 ft 383 kts 221°
2026-04-25 10:22 39.86273 44.02297 24299 ft 387 kts 221°
2026-04-25 10:22 39.84076 44.00243 25055 ft 390 kts 221°
2026-04-25 10:22 39.81855 43.98183 25821 ft 393 kts 221°
2026-04-25 10:22 39.79620 43.96099 26549 ft 397 kts 221°
2026-04-25 10:23 39.77363 43.94004 27268 ft 401 kts 221°
2026-04-25 10:23 39.75085 43.91885 27951 ft 405 kts 221°
2026-04-25 10:23 39.72783 43.89755 28654 ft 408 kts 221°
2026-04-25 10:23 39.70467 43.87595 29414 ft 410 kts 221°
2026-04-25 10:24 39.68171 43.85474 29845 ft 402 kts 221°
2026-04-25 10:24 39.65881 43.83355 30013 ft 406 kts 221°
2026-04-25 10:24 39.63572 43.81219 30061 ft 409 kts 221°
2026-04-25 10:25 39.58992 43.76991 30112 ft 406 kts 221°
2026-04-25 10:25 39.54372 43.72735 30132 ft 407 kts 221°
2026-04-25 10:26 39.49756 43.68485 30147 ft 407 kts 221°
2026-04-25 10:26 39.45140 43.64246 30133 ft 406 kts 221°
2026-04-25 10:27 39.40519 43.60004 30158 ft 408 kts 221°
2026-04-25 10:27 39.35893 43.55767 30177 ft 407 kts 221°
2026-04-25 10:28 39.31283 43.51556 30135 ft 405 kts 221°
2026-04-25 10:28 39.26665 43.47343 30184 ft 406 kts 221°
2026-04-25 10:29 39.22054 43.43142 30192 ft 404 kts 221°
2026-04-25 10:29 39.17492 43.38984 30169 ft 405 kts 220°
2026-04-25 10:30 39.12884 43.34802 30162 ft 405 kts 220°
2026-04-25 10:30 39.08284 43.30629 30170 ft 404 kts 220°
2026-04-25 10:31 39.03689 43.26467 30155 ft 406 kts 220°
2026-04-25 10:31 38.99051 43.22281 30142 ft 406 kts 220°
2026-04-25 10:32 38.94420 43.18099 30155 ft 408 kts 220°
2026-04-25 10:32 38.89759 43.13902 30146 ft 409 kts 220°
2026-04-25 10:33 38.85132 43.09742 30137 ft 408 kts 220°
2026-04-25 10:33 38.80464 43.05552 30140 ft 410 kts 220°
2026-04-25 10:34 38.75790 43.01362 30128 ft 410 kts 220°
2026-04-25 10:34 38.71111 42.97173 30130 ft 410 kts 220°
2026-04-25 10:35 38.66431 42.92991 30122 ft 411 kts 220°
2026-04-25 10:35 38.61740 42.88806 30123 ft 410 kts 220°
2026-04-25 10:36 38.57084 42.84659 30125 ft 410 kts 220°
2026-04-25 10:36 38.52463 42.80390 30117 ft 408 kts 225°
2026-04-25 10:37 38.48330 42.75385 30121 ft 406 kts 229°
2026-04-25 10:37 38.44709 42.69894 30123 ft 405 kts 233°
2026-04-25 10:38 38.41141 42.64388 30123 ft 405 kts 234°
2026-04-25 10:38 38.37545 42.58870 30128 ft 403 kts 234°
2026-04-25 10:39 38.33958 42.53367 30134 ft 404 kts 234°
2026-04-25 10:39 38.30365 42.47858 30106 ft 404 kts 234°
2026-04-25 10:40 38.26785 42.42379 30129 ft 401 kts 234°
2026-04-25 10:40 38.23225 42.36942 30133 ft 403 kts 234°
2026-04-25 10:41 38.19636 42.31473 30151 ft 402 kts 234°
2026-04-25 10:41 38.16056 42.26017 30131 ft 401 kts 234°
2026-04-25 10:42 38.12583 42.20458 30092 ft 399 kts 244°
2026-04-25 10:42 38.10704 42.13895 30119 ft 395 kts 252°
2026-04-25 10:43 38.08850 42.07387 30108 ft 395 kts 246°
2026-04-25 10:43 38.07317 42.04479 30050 ft 399 kts 234°
2026-04-25 10:43 38.05456 42.01858 30088 ft 402 kts 230°
2026-04-25 10:44 38.01258 41.97092 30082 ft 407 kts 224°
2026-04-25 10:44 37.96798 41.92652 30057 ft 408 kts 220°
2026-04-25 10:45 37.91908 41.88856 30060 ft 413 kts 217°
2026-04-25 10:45 37.86976 41.85120 30054 ft 411 kts 219°
2026-04-25 10:46 37.82134 41.81304 30048 ft 413 kts 218°
2026-04-25 10:46 37.77264 41.77460 30036 ft 411 kts 217°
2026-04-25 10:47 37.72395 41.73634 30037 ft 414 kts 217°
2026-04-25 10:47 37.67503 41.69804 30013 ft 412 kts 218°
2026-04-25 10:48 37.62600 41.65968 30041 ft 415 kts 217°
2026-04-25 10:48 37.57695 41.62136 30024 ft 414 kts 217°
2026-04-25 10:49 37.52805 41.58309 30034 ft 414 kts 217°
2026-04-25 10:49 37.47931 41.54516 30027 ft 415 kts 217°
2026-04-25 10:50 37.42996 41.50680 30038 ft 414 kts 217°
2026-04-25 10:50 37.38092 41.46866 29805 ft 415 kts 213°
2026-04-25 10:50 37.35649 41.44951 29958 ft 423 kts 214°
2026-04-25 10:51 37.33109 41.43029 30008 ft 425 kts 214°
2026-04-25 10:51 37.28112 41.39138 30032 ft 421 kts 214°
2026-04-25 10:52 37.23113 41.35270 30022 ft 422 kts 214°
2026-04-25 10:52 37.18113 41.31410 30027 ft 421 kts 214°
2026-04-25 10:53 37.13128 41.27568 30019 ft 420 kts 214°
2026-04-25 10:53 37.08125 41.23841 30017 ft 421 kts 213°
2026-04-25 10:54 37.03337 41.19673 30011 ft 417 kts 221°
2026-04-25 10:54 36.98210 41.16241 30024 ft 425 kts 203°
2026-04-25 10:55 36.93553 41.14238 30013 ft 425 kts 202°
2026-04-25 10:55 36.87925 41.11887 30010 ft 427 kts 202°
2026-04-25 10:56 36.82284 41.09521 30002 ft 428 kts 202°
2026-04-25 10:56 36.76644 41.07120 30000 ft 428 kts 202°
2026-04-25 10:57 36.71010 41.04671 29997 ft 429 kts 202°
2026-04-25 10:57 36.65416 41.02194 30000 ft 429 kts 203°
2026-04-25 10:58 36.59804 40.99665 29997 ft 429 kts 203°
2026-04-25 10:58 36.54189 40.97085 29998 ft 429 kts 204°
2026-04-25 10:58 36.51555 40.95409 29998 ft 424 kts 216°
2026-04-25 10:59 36.49178 40.93251 30003 ft 423 kts 220°
2026-04-25 10:59 36.44774 40.88426 30005 ft 421 kts 225°
2026-04-25 11:00 36.40648 40.83260 29991 ft 422 kts 227°
2026-04-25 11:00 36.36588 40.78026 29991 ft 420 kts 229°
2026-04-25 11:01 36.32905 40.72371 29992 ft 421 kts 231°
2026-04-25 11:01 36.29239 40.66711 29992 ft 420 kts 232°
2026-04-25 11:02 36.25587 40.61105 29996 ft 422 kts 232°
2026-04-25 11:02 36.21894 40.55438 29994 ft 422 kts 232°
2026-04-25 11:03 36.18212 40.49797 29993 ft 420 kts 232°
2026-04-25 11:03 36.14532 40.44169 29991 ft 421 kts 232°
2026-04-25 11:04 36.10845 40.38539 29989 ft 421 kts 231°
2026-04-25 11:04 36.07154 40.32912 29984 ft 421 kts 231°
2026-04-25 11:05 36.03468 40.27302 29988 ft 420 kts 231°
2026-04-25 11:05 35.99779 40.21698 29982 ft 420 kts 231°
2026-04-25 11:06 35.96110 40.16132 29985 ft 419 kts 231°
2026-04-25 11:06 35.92430 40.10554 29982 ft 419 kts 231°
2026-04-25 11:07 35.88739 40.04976 29977 ft 420 kts 231°
2026-04-25 11:07 35.85043 39.99397 29974 ft 419 kts 231°
2026-04-25 11:08 35.81350 39.93829 29971 ft 420 kts 231°
2026-04-25 11:08 35.77648 39.88262 29970 ft 419 kts 231°
2026-04-25 11:09 35.73942 39.82694 29969 ft 421 kts 231°
2026-04-25 11:09 35.70224 39.77121 29971 ft 420 kts 231°
2026-04-25 11:10 35.66507 39.71554 29962 ft 421 kts 231°
2026-04-25 11:10 35.62787 39.65991 29963 ft 421 kts 231°
2026-04-25 11:11 35.59079 39.60457 29959 ft 422 kts 231°
2026-04-25 11:11 35.55343 39.54893 29968 ft 422 kts 231°
2026-04-25 11:12 35.51601 39.49327 29966 ft 423 kts 231°
2026-04-25 11:12 35.47853 39.43760 29963 ft 423 kts 231°
2026-04-25 11:13 35.44101 39.38197 29961 ft 423 kts 231°
2026-04-25 11:13 35.40349 39.32642 29961 ft 423 kts 231°
2026-04-25 11:14 35.36600 39.27102 29957 ft 422 kts 230°
2026-04-25 11:14 35.32847 39.21561 29960 ft 423 kts 231°
2026-04-25 11:15 35.29113 39.16057 29960 ft 423 kts 230°
2026-04-25 11:15 35.25348 39.10520 29902 ft 424 kts 230°
2026-04-25 11:15 35.23465 39.07752 29259 ft 422 kts 230°
2026-04-25 11:16 35.19717 39.02251 26693 ft 416 kts 230°
2026-04-25 11:16 35.17876 38.99555 25567 ft 410 kts 230°
2026-04-25 11:16 35.16066 38.96901 24474 ft 404 kts 230°
2026-04-25 11:17 35.14309 38.94330 24182 ft 381 kts 230°
2026-04-25 11:17 35.12629 38.91876 23986 ft 373 kts 230°
2026-04-25 11:17 35.10978 38.89459 23791 ft 368 kts 230°
2026-04-25 11:17 35.09331 38.87058 23597 ft 369 kts 230°
2026-04-25 11:18 35.07687 38.84654 23378 ft 368 kts 230°
2026-04-25 11:18 35.06047 38.82267 23149 ft 366 kts 230°
2026-04-25 11:18 35.04415 38.79883 22922 ft 365 kts 230°
2026-04-25 11:18 35.02784 38.77512 22699 ft 364 kts 230°
2026-04-25 11:19 35.01164 38.75150 22468 ft 362 kts 230°
2026-04-25 11:19 34.99567 38.72833 22245 ft 361 kts 229°
2026-04-25 11:19 34.97956 38.70487 22022 ft 361 kts 229°
2026-04-25 11:19 34.96341 38.68144 21808 ft 358 kts 229°
2026-04-25 11:20 34.94747 38.65826 21585 ft 357 kts 229°
2026-04-25 11:20 34.93143 38.63505 21362 ft 357 kts 229°
2026-04-25 11:20 34.91548 38.61193 21133 ft 355 kts 229°
2026-04-25 11:20 34.89964 38.58889 20910 ft 354 kts 229°
2026-04-25 11:21 34.88368 38.56586 20988 ft 360 kts 230°
2026-04-25 11:21 34.86672 38.54142 20798 ft 390 kts 230°
2026-04-25 11:21 34.84942 38.51621 20592 ft 389 kts 230°
2026-04-25 11:21 34.83126 38.49009 20399 ft 412 kts 230°
2026-04-25 11:22 34.81295 38.46359 20177 ft 406 kts 230°
2026-04-25 11:22 34.80089 38.44623 20036 ft 404 kts 230°
2026-04-25 11:22 34.77693 38.41165 19745 ft 402 kts 230°
2026-04-25 11:22 34.75888 38.38572 19532 ft 401 kts 230°
2026-04-25 11:23 34.74092 38.35983 19312 ft 400 kts 230°
2026-04-25 11:23 34.72291 38.33393 19103 ft 398 kts 230°
2026-04-25 11:23 34.70506 38.30832 18889 ft 396 kts 230°
2026-04-25 11:23 34.68732 38.28278 18678 ft 395 kts 230°
2026-04-25 11:24 34.66959 38.25740 18463 ft 392 kts 230°
2026-04-25 11:24 34.65219 38.23238 18252 ft 392 kts 230°
2026-04-25 11:24 34.63454 38.20717 18041 ft 390 kts 230°
2026-04-25 11:24 34.61707 38.18205 17825 ft 388 kts 230°
2026-04-25 11:25 34.59957 38.15714 17612 ft 388 kts 230°
2026-04-25 11:25 34.58220 38.13217 17400 ft 386 kts 230°
2026-04-25 11:25 34.56480 38.10743 17185 ft 384 kts 230°
2026-04-25 11:25 34.54757 38.08270 16969 ft 383 kts 230°
2026-04-25 11:26 34.53031 38.05815 16768 ft 382 kts 230°
2026-04-25 11:26 34.51307 38.03357 16556 ft 381 kts 230°
2026-04-25 11:26 34.49596 38.00918 16341 ft 379 kts 230°
2026-04-25 11:26 34.47883 37.98480 16127 ft 379 kts 230°
2026-04-25 11:27 34.46176 37.96044 15905 ft 378 kts 230°
2026-04-25 11:27 34.44470 37.93630 15698 ft 376 kts 230°
2026-04-25 11:27 34.42781 37.91217 15483 ft 375 kts 230°
2026-04-25 11:27 34.41659 37.89632 15343 ft 374 kts 230°
2026-04-25 11:28 34.39424 37.86453 15059 ft 373 kts 230°
2026-04-25 11:28 34.37734 37.84067 14838 ft 372 kts 230°
2026-04-25 11:28 34.36061 37.81687 14640 ft 370 kts 230°
2026-04-25 11:28 34.34385 37.79320 14418 ft 370 kts 229°
2026-04-25 11:29 34.32715 37.76953 14205 ft 369 kts 230°
2026-04-25 11:29 34.31051 37.74599 13991 ft 367 kts 229°
2026-04-25 11:29 34.29392 37.72257 13775 ft 366 kts 230°
2026-04-25 11:29 34.27735 37.69912 13562 ft 366 kts 229°
2026-04-25 11:30 34.26080 37.67583 13352 ft 365 kts 230°
2026-04-25 11:30 34.24435 37.65254 13138 ft 363 kts 229°
2026-04-25 11:30 34.22791 37.62947 12923 ft 362 kts 230°
2026-04-25 11:30 34.21156 37.60632 12711 ft 361 kts 230°
2026-04-25 11:31 34.19516 37.58335 12497 ft 360 kts 229°
2026-04-25 11:31 34.17916 37.56074 12287 ft 359 kts 230°
2026-04-25 11:31 34.16289 37.53793 12074 ft 358 kts 229°
2026-04-25 11:31 34.14666 37.51511 11861 ft 357 kts 230°
2026-04-25 11:32 34.13049 37.49238 11647 ft 356 kts 229°
2026-04-25 11:32 34.11433 37.46975 11436 ft 356 kts 230°
2026-04-25 11:32 34.09819 37.44706 11228 ft 355 kts 229°
2026-04-25 11:32 34.08215 37.42463 11012 ft 353 kts 230°
2026-04-25 11:33 34.06612 37.40211 10802 ft 353 kts 229°
2026-04-25 11:33 34.05060 37.38051 10612 ft 327 kts 229°
2026-04-25 11:33 34.03636 37.36047 10535 ft 301 kts 230°
2026-04-25 11:33 34.02317 37.34210 10499 ft 278 kts 229°
2026-04-25 11:34 34.01108 37.32516 10482 ft 256 kts 230°
2026-04-25 11:34 33.99989 37.30956 10517 ft 246 kts 229°
2026-04-25 11:34 33.98858 37.29376 10423 ft 251 kts 230°
2026-04-25 11:34 33.97706 37.27766 9936 ft 253 kts 229°
2026-04-25 11:35 33.96563 37.26174 9663 ft 245 kts 229°
2026-04-25 11:35 33.95479 37.24662 9482 ft 234 kts 229°
2026-04-25 11:35 33.94430 37.23205 9272 ft 225 kts 230°
2026-04-25 11:35 33.93438 37.21812 9075 ft 219 kts 229°
2026-04-25 11:36 33.92446 37.20438 8886 ft 217 kts 229°
2026-04-25 11:36 33.91459 37.19062 8708 ft 218 kts 230°
2026-04-25 11:36 33.90468 37.17684 8526 ft 217 kts 229°
2026-04-25 11:36 33.89481 37.16314 8344 ft 216 kts 229°
2026-04-25 11:37 33.88500 37.14945 8160 ft 215 kts 230°
2026-04-25 11:37 33.87522 37.13586 7976 ft 215 kts 229°
2026-04-25 11:37 33.86544 37.12230 7789 ft 215 kts 230°
2026-04-25 11:37 33.85567 37.10871 7606 ft 214 kts 229°
2026-04-25 11:38 33.84594 37.09522 7410 ft 213 kts 229°
2026-04-25 11:38 33.83625 37.08173 7225 ft 212 kts 229°
2026-04-25 11:38 33.82657 37.06835 7034 ft 212 kts 229°
2026-04-25 11:38 33.81691 37.05494 6852 ft 212 kts 229°
2026-04-25 11:39 33.80746 37.04185 6676 ft 203 kts 229°
2026-04-25 11:39 33.79841 37.02927 6530 ft 193 kts 229°
2026-04-25 11:39 33.78977 37.01735 6530 ft 185 kts 229°
2026-04-25 11:39 33.78126 37.00552 6555 ft 189 kts 229°
2026-04-25 11:40 33.77555 36.99767 6537 ft 188 kts 229°
2026-04-25 11:40 33.76704 36.98583 6517 ft 187 kts 230°
2026-04-25 11:40 33.75848 36.97397 6504 ft 188 kts 229°
2026-04-25 11:40 33.74989 36.96215 6495 ft 187 kts 229°
2026-04-25 11:41 33.74133 36.95033 6494 ft 188 kts 229°
2026-04-25 11:41 33.73276 36.93842 6493 ft 188 kts 230°
2026-04-25 11:41 33.72413 36.92656 6495 ft 188 kts 229°
2026-04-25 11:41 33.71559 36.91471 6492 ft 188 kts 230°
2026-04-25 11:42 33.70714 36.90299 6500 ft 188 kts 229°
2026-04-25 11:42 33.69852 36.89115 6501 ft 188 kts 229°
2026-04-25 11:42 33.68974 36.87907 6161 ft 194 kts 229°
2026-04-25 11:42 33.68090 36.86691 5811 ft 192 kts 229°
2026-04-25 11:43 33.67237 36.85507 5615 ft 183 kts 229°
2026-04-25 11:43 33.66413 36.84373 5373 ft 177 kts 229°
2026-04-25 11:43 33.65639 36.83306 5286 ft 160 kts 229°
2026-04-25 11:43 33.64940 36.82343 5286 ft 147 kts 230°
2026-04-25 11:44 33.64279 36.81433 5248 ft 144 kts 229°
2026-04-25 11:44 33.63620 36.80520 5243 ft 145 kts 230°
2026-04-25 11:44 33.62959 36.79611 5240 ft 143 kts 230°
2026-04-25 11:44 33.62343 36.78664 5219 ft 144 kts 233°
2026-04-25 11:45 33.61736 36.77710 5213 ft 144 kts 232°
2026-04-25 11:45 33.61113 36.76782 5206 ft 144 kts 231°
2026-04-25 11:45 33.60480 36.75854 5197 ft 144 kts 231°
2026-04-25 11:45 33.59824 36.74945 5198 ft 144 kts 229°
2026-04-25 11:46 33.59156 36.74045 5206 ft 145 kts 228°
2026-04-25 11:46 33.58466 36.73168 5202 ft 144 kts 226°
2026-04-25 11:46 33.57771 36.72300 5202 ft 144 kts 227°
2026-04-25 11:46 33.57076 36.71432 5222 ft 144 kts 227°
2026-04-25 11:47 33.56397 36.70546 5197 ft 144 kts 228°
2026-04-25 11:47 33.55705 36.69675 5212 ft 145 kts 228°
2026-04-25 11:47 33.55042 36.68768 5196 ft 144 kts 230°
2026-04-25 11:47 33.54396 36.67853 5181 ft 146 kts 230°
2026-04-25 11:48 33.53741 36.66915 4946 ft 143 kts 231°
2026-04-25 11:48 33.53108 36.66030 4763 ft 139 kts 229°
2026-04-25 11:48 33.52464 36.65159 4588 ft 140 kts 229°
2026-04-25 11:48 33.51814 36.64294 4414 ft 139 kts 229°
2026-04-25 11:49 33.51172 36.63445 4227 ft 139 kts 228°
2026-04-25 11:49 33.50525 36.62585 4035 ft 138 kts 229°
2026-04-25 11:49 33.49885 36.61727 3837 ft 138 kts 229°
2026-04-25 11:49 33.49250 36.60870 3674 ft 138 kts 229°
2026-04-25 11:50 33.48622 36.60002 3503 ft 137 kts 230°
2026-04-25 11:50 33.47991 36.59148 3321 ft 137 kts 228°
2026-04-25 11:50 33.47353 36.58299 3124 ft 137 kts 230°
2026-04-25 11:50 33.46737 36.57436 2932 ft 136 kts 228°
2026-04-25 11:51 33.46102 36.56603 2739 ft 135 kts 229°
2026-04-25 11:51 33.45485 36.55773 2577 ft 132 kts 229°
2026-04-25 11:51 33.44876 36.54946 2343 ft 133 kts 229°
2026-04-25 11:51 33.44262 36.54116 2168 ft 131 kts 228°
2026-04-25 11:52 33.43659 36.53310 2038 ft 128 kts 229°
2026-04-25 11:52 33.43093 36.52551 2013 ft 116 kts 229°
2026-04-25 11:52 33.42586 36.51870 2008 ft 103 kts 227°
2026-04-25 11:52 33.42211 36.51498 2007 ft 44 kts 204°
2026-04-25 11:53 33.41973 36.51338 2007 ft 36 kts 225°
2026-04-25 11:53 33.41842 36.51253 2009 ft 18 kts 150°
2026-04-25 11:53 33.41746 36.51343 2009 ft 17 kts 137°
2026-04-25 11:53 33.41645 36.51403 2007 ft 16 kts 178°
2026-04-25 11:54 33.41534 36.51398 2009 ft 16 kts 183°
2026-04-25 11:54 33.41424 36.51391 2006 ft 16 kts 183°
2026-04-25 11:54 33.41320 36.51459 2009 ft 2 kts 220°
2026-04-25 11:55 33.41311 36.51438 2009 ft 3 kts 243°
2026-04-25 11:55 33.41297 36.51404 2009 ft 4 kts 243°
2026-04-25 11:55 33.41295 36.51400 2009 ft 0 kts 243°